Wind_Speed
15 15 15 15 14 14 14 12 12 12 11 10 10 10 9 8 8 8 8 8 8 9
16 17 17 16 16 16 15 15 14 13 13 12 13 13 12 12 13 12 12 12 12 12
17 18 19 19 18 18 17 17 17 16 15 15 15 15 15 16 16 17 16 17 17 16
19 20 20 20 20 19 19 19 18 18 18 17 18 19 20 20 20 21 21 21 22 22
21 21 21 20 21 22 21 21 21 20 20 21 20 21 22 23 23 24 24 23 24 24
23 23 23 23 23 23 23 23 22 23 23 23 23 23 24 25 25 26 26 26 26 27
24 25 25 25 25 24 24 25 28 27 26 26 26 26 25 26 26 27 27 27 27 27
21 24 24 25 26 27 28 28 28 27 26 25 25 25 24 26 27 29 29 29 28 28
16 18 20 22 23 23 24 24 24 24 25 26 26 24 23 23 25 27 28 29 29 29
15 16 16 17 18 18 20 21 22 23 24 25 25 24 24 23 22 24 28 30 30 30
19 19 19 20 20 21 22 23 24 24 24 26 25 23 23 21 23 26 27 28 29 29
21 22 21 21 22 22 23 23 23 23 23 23 22 20 20 20 23 26 28 26 26 26
21 21 21 21 21 21 21 22 21 21 20 20 22 20 20 20 23 27 28 29 30 27
21 21 21 21 20 20 20 20 19 19 19 20 19 20 19 19 23 27 30 32 32 29
Wind_Direction
264 265 266 269 271 274 276 275 276 276 275 276 277 279 277 281 284 289 290 294 299 303
269 268 269 270 272 273 275 279 279 278 279 280 280 278 281 283 282 281 283 287 290 292
267 267 269 271 273 275 276 276 277 278 280 282 282 283 284 283 283 283 281 281 282 284
269 268 269 271 271 272 275 278 279 280 281 281 283 284 283 283 282 282 282 283 284 285
275 276 276 274 273 274 273 275 278 281 283 281 281 282 282 281 282 281 281 282 283 284
270 270 272 272 272 274 277 279 281 283 283 284 286 285 285 285 284 284 283 283 283 284
271 270 269 271 274 273 273 276 278 281 281 284 284 285 286 286 286 286 286 286 285 286
279 278 278 277 275 278 281 282 282 281 282 282 284 286 288 286 286 286 286 287 288 288
294 286 282 280 280 281 282 282 281 282 283 284 285 287 285 284 285 287 288 288 288 286
303 301 298 295 292 290 289 287 286 287 287 287 287 289 288 287 284 282 282 285 286 288
303 300 298 296 295 292 289 289 290 290 289 289 290 290 287 287 282 281 282 286 289 290
303 302 300 298 296 295 294 294 294 294 295 295 295 294 292 293 288 285 289 294 295 296
305 303 302 301 301 301 299 299 301 302 303 304 306 308 301 293 293 296 302 304 306 302
307 305 305 304 305 305 306 306 307 306 309 310 314 316 310 301 295 295 297 299 302 299
Height
1555 1555 1555 1555 1554 1554 1554 1554 1553 1552 1551 1550 1549 1549 1549 1548 1548 1548 1548 1547 1547 1547
1551 1552 1553 1553 1552 1551 1550 1551 1550 1549 1549 1548 1548 1547 1546 1545 1545 1544 1544 1544 1544 1544
1547 1548 1548 1549 1548 1548 1547 1546 1546 1545 1545 1545 1545 1544 1544 1543 1542 1541 1541 1541 1540 1540
1543 1543 1544 1544 1544 1543 1542 1542 1542 1541 1540 1540 1540 1540 1539 1539 1538 1537 1536 1536 1535 1535
1540 1539 1540 1540 1539 1538 1538 1536 1535 1535 1535 1535 1534 1534 1533 1533 1532 1532 1531 1530 1529 1529
1534 1534 1534 1534 1533 1533 1533 1531 1531 1530 1530 1529 1528 1528 1527 1526 1525 1525 1524 1523 1522 1522
1528 1527 1527 1528 1528 1527 1527 1526 1525 1524 1523 1523 1522 1521 1521 1519 1518 1517 1516 1516 1515 1514
1523 1522 1522 1522 1522 1521 1520 1519 1518 1517 1516 1515 1514 1514 1513 1512 1511 1509 1508 1507 1507 1506
1520 1518 1517 1516 1515 1515 1514 1513 1511 1510 1509 1509 1508 1508 1507 1506 1504 1503 1501 1500 1499 1498
1516 1515 1514 1513 1512 1510 1509 1508 1506 1505 1504 1502 1501 1501 1500 1499 1499 1496 1494 1492 1491 1489
1513 1511 1510 1508 1507 1505 1504 1502 1500 1499 1498 1495 1495 1494 1493 1492 1491 1488 1486 1485 1484 1482
1508 1506 1504 1503 1501 1500 1497 1496 1494 1492 1491 1489 1488 1488 1486 1486 1483 1480 1478 1477 1476 1474
1503 1501 1499 1498 1496 1494 1492 1490 1488 1487 1485 1483 1481 1481 1479 1478 1476 1473 1471 1470 1468 1467
1498 1496 1494 1492 1490 1488 1487 1485 1483 1481 1480 1479 1477 1474 1472 1473 1471 1468 1465 1461 1459 1458